Location: Doazon
(43.4500°N, 0.5500°W)
Time: 23:42:14
(UTC+00:00)

ATLAS CENTAUR R/B - Visible Passes

Search period start: 14 March 2026 00:00
Search period end: 24 March 2026 00:00
Orbit: 269 x 295 km, 64.6° (Epoch: 14 March)

Date Brightness Start Highest point End Pass type
(mag) Time Alt. Az. Time Alt. Az. Time Alt. Az.
14 Mar 1.2 04:43:59 34° N 04:43:59 34° N 04:45:47 10° NNE visible
15 Mar 2.1 04:47:15 18° NNW 04:47:15 18° NNW 04:48:26 10° N visible
16 Mar 2.8 04:49:26 11° NNW 04:49:26 11° NNW 04:49:45 10° NNW visible
